シュヴァスマン-ヴァハマン第1彗星

29P/Schwassmann-Wachmann 1 (1989)

English version
Home page
Updated on May 5, 2012

---------------------------------------------------------------------

・ プロフィール

・ 軌道要素

Epoch 1989 Nov. 10.0 TT = JDT 2447840.5
T 1989 Oct. 26.72553 TT                                 MPC
q   5.7717726            (2000.0)            P               Q
n   0.06637084     Peri.   49.87037     +0.99139205     -0.05373159
a   6.0415890      Node   312.84784     -0.01238501     +0.86933190
e   0.0446599      Incl.    9.37217     +0.13033961     +0.49129925
P  14.9
From 16492 observations 1902 Mar. 5-2012 May 3, mean residual 0".6.

・ 星図

・ 1995年 1月 3日〜1997年12月18日

・ 光度変化

        m1 = 4.0 + 5 logΔ + 7.5 log r

---------------------------------------------------------------------

軌道要素はM.P.E.C. 2012-J16に掲載されたものです。
星図は StellaNavigator Ver.2.0 for Windows (アストロアーツ編著 / アスキー出版局刊) で作成したものです。
光度グラフはComet for Windowsで作成したものです。

---------------------------------------------------------------------

Copyright(C) Seiichi Yoshida (comet@aerith.net). All rights reserved.